Location: St. Louis
(38.6270°N, 90.1994°W)
Time: 11:23:49
(UTC-06:00)

S-56A Canister/Altair - Pass Details

Date: 01 December 2021
Orbit: 634 x 2499 km, 38.9° (Epoch: 26 January)

Event Time Altitude Azimuth Distance (km) Brightness Sun altitude
Rises 06:52:33 0° 276° (W) 3,057 - -2.1°
Exits shadow 06:52:40 - 275° (W) 3,013 10.0 -2.1°
Reaches altitude 10° 06:55:39 10° 256° (WSW) 2,037 9.3 -1.6°
Maximum altitude 06:58:36 17° 214° (SW) 1,586 9.1 -1.1°
Drops below altitude 10° 07:01:33 10° 173° (S) 2,037 10.3 -0.6°
Sets 07:04:40 0° 152° (SSE) 3,057 11.7 0.0°
